Time,TemperatureF,DewpointF,PressureIn,WindDirection,WindDirectionDegrees,WindSpeedMPH,WindSpeedGustMPH,Humidity,HourlyPrecipIn,Conditions,Clouds,dailyrainin,SoftwareType,DateUTC
2013-03-02 00:02:00,30.0,27.0,29.38,SSE,155,0.0,-999.0,90,-99.99,,,-99.99,,2013-03-02 05:02:00,
2013-03-02 00:12:00,30.0,27.0,29.38,SSE,155,0.0,-999.0,90,-99.99,,,-99.99,,2013-03-02 05:12:00,
2013-03-02 00:22:00,30.0,27.0,29.35,SE,145,1.0,-999.0,90,-99.99,,,-99.99,,2013-03-02 05:22:00,
2013-03-02 00:32:00,29.0,26.0,29.39,SSW,199,0.0,-999.0,89,-99.99,,,-99.99,,2013-03-02 05:32:00,
2013-03-02 00:42:00,29.0,26.0,29.39,SSW,199,0.0,-999.0,89,-99.99,,,-99.99,,2013-03-02 05:42:00,
2013-03-02 00:52:00,29.0,26.0,29.36,SSE,159,1.0,-999.0,89,-99.99,,,-99.99,,2013-03-02 05:52:00,
2013-03-02 01:02:00,29.0,26.0,29.39,East,91,0.0,-999.0,90,-99.99,,,-99.99,,2013-03-02 06:02:00,
2013-03-02 01:11:00,29.0,26.0,29.39,East,91,0.0,-999.0,90,-99.99,,,-99.99,,2013-03-02 06:11:00,
2013-03-02 01:22:00,29.0,26.0,29.39,SE,135,0.0,-999.0,90,-99.99,,,-99.99,,2013-03-02 06:22:00,
2013-03-02 01:32:00,29.0,26.0,29.39,SE,135,0.0,-999.0,90,-99.99,,,-99.99,,2013-03-02 06:32:00,
2013-03-02 01:42:00,29.0,26.0,29.39,SE,135,0.0,-999.0,90,-99.99,,,-99.99,,2013-03-02 06:42:00,
2013-03-02 01:52:00,29.0,27.0,29.36,SE,127,0.0,-999.0,91,-99.99,,,-99.99,,2013-03-02 06:52:00,
2013-03-02 02:01:00,28.0,26.0,29.39,SSE,163,0.0,-999.0,91,-99.99,,,-99.99,,2013-03-02 07:01:00,
2013-03-02 02:11:00,28.0,26.0,29.39,SSE,163,0.0,-999.0,91,-99.99,,,-99.99,,2013-03-02 07:11:00,
2013-03-02 02:22:00,29.0,27.0,29.35,SE,138,0.0,-999.0,92,-99.99,,,-99.99,,2013-03-02 07:22:00,
2013-03-02 02:32:00,28.0,26.0,29.38,ESE,122,0.0,-999.0,92,-99.99,,,-99.99,,2013-03-02 07:32:00,
2013-03-02 02:42:00,28.0,26.0,29.38,ESE,122,0.0,-999.0,92,-99.99,,,-99.99,,2013-03-02 07:42:00,
2013-03-02 02:52:00,29.0,27.0,29.35,SE,140,0.0,-999.0,92,-99.99,,,-99.99,,2013-03-02 07:52:00,
2013-03-02 03:01:00,28.0,26.0,29.38,ESE,110,0.0,-999.0,92,-99.99,,,-99.99,,2013-03-02 08:01:00,
2013-03-02 03:11:00,28.0,26.0,29.38,ESE,110,0.0,-999.0,92,-99.99,,,-99.99,,2013-03-02 08:11:00,
2013-03-02 03:22:00,29.0,27.0,29.34,SSE,160,0.0,-999.0,93,-99.99,,,-99.99,,2013-03-02 08:22:00,
2013-03-02 03:32:00,28.0,26.0,29.37,SSE,160,0.0,-999.0,93,-99.99,,,-99.99,,2013-03-02 08:32:00,
2013-03-02 03:42:00,28.0,26.0,29.37,SSE,160,0.0,-999.0,93,-99.99,,,-99.99,,2013-03-02 08:42:00,
2013-03-02 03:52:00,28.0,27.0,29.38,ESE,110,0.0,-999.0,94,-99.99,,,-99.99,,2013-03-02 08:52:00,
2013-03-02 04:02:00,28.0,26.0,29.38,SSW,207,1.0,-999.0,93,-99.99,,,-99.99,,2013-03-02 09:02:00,
2013-03-02 04:11:00,28.0,26.0,29.38,SSW,207,1.0,-999.0,93,-99.99,,,-99.99,,2013-03-02 09:11:00,
2013-03-02 04:22:00,29.0,27.0,29.34,South,189,0.0,-999.0,93,-99.99,,,-99.99,,2013-03-02 09:22:00,
2013-03-02 04:32:00,28.0,26.0,29.38,SSE,164,1.0,-999.0,93,-99.99,,,-99.99,,2013-03-02 09:32:00,
2013-03-02 04:42:00,28.0,26.0,29.38,SSE,164,1.0,-999.0,93,-99.99,,,-99.99,,2013-03-02 09:42:00,
2013-03-02 04:52:00,29.0,27.0,29.35,South,184,0.0,-999.0,93,-99.99,,,-99.99,,2013-03-02 09:52:00,
2013-03-02 05:01:00,28.0,26.0,29.39,South,176,0.0,-999.0,93,-99.99,,,-99.99,,2013-03-02 10:01:00,
2013-03-02 05:16:00,28.0,26.0,29.39,South,176,0.0,-999.0,93,-99.99,,,-99.99,,2013-03-02 10:16:00,
2013-03-02 05:22:00,29.0,27.0,29.36,SSW,203,0.0,-999.0,93,-99.99,,,-99.99,,2013-03-02 10:22:00,
2013-03-02 05:32:00,29.0,27.0,29.39,South,171,0.0,-999.0,92,-99.99,,,-99.99,,2013-03-02 10:32:00,
2013-03-02 05:43:00,29.0,27.0,29.39,South,171,0.0,-999.0,92,-99.99,,,-99.99,,2013-03-02 10:43:00,
2013-03-02 05:52:00,29.0,27.0,29.35,ESE,123,0.0,-999.0,93,-99.99,,,-99.99,,2013-03-02 10:52:00,
2013-03-02 06:01:00,29.0,27.0,29.39,SE,130,0.0,-999.0,93,-99.99,,,-99.99,,2013-03-02 11:01:00,
2013-03-02 06:11:00,29.0,27.0,29.39,SE,130,0.0,-999.0,93,-99.99,,,-99.99,,2013-03-02 11:11:00,
2013-03-02 06:22:00,29.0,27.0,29.36,SSE,162,0.0,-999.0,92,-99.99,,,-99.99,,2013-03-02 11:22:00,
2013-03-02 06:32:00,29.0,27.0,29.39,SE,133,0.0,-999.0,92,-99.99,,,-99.99,,2013-03-02 11:32:00,
2013-03-02 06:42:00,29.0,27.0,29.39,SE,133,0.0,-999.0,92,-99.99,,,-99.99,,2013-03-02 11:42:00,
2013-03-02 06:52:00,29.0,27.0,29.39,SSE,159,0.0,-999.0,92,-99.99,,,-99.99,,2013-03-02 11:52:00,
2013-03-02 07:02:00,29.0,27.0,29.39,SSE,159,0.0,-999.0,92,-99.99,,,-99.99,,2013-03-02 12:02:00,
2013-03-02 07:11:00,29.0,27.0,29.39,SSE,159,0.0,-999.0,92,-99.99,,,-99.99,,2013-03-02 12:11:00,
2013-03-02 07:22:00,29.0,27.0,29.37,SSW,213,0.0,-999.0,91,-99.99,,,-99.99,,2013-03-02 12:22:00,
2013-03-02 07:33:00,29.0,27.0,29.40,ESE,109,0.0,-999.0,91,-99.99,,,-99.99,,2013-03-02 12:33:00,
2013-03-02 07:43:00,29.0,27.0,29.40,ESE,109,0.0,-999.0,91,-99.99,,,-99.99,,2013-03-02 12:43:00,
2013-03-02 07:53:00,30.0,28.0,29.37,SSE,150,0.0,-999.0,91,-99.99,,,-99.99,,2013-03-02 12:53:00,
2013-03-02 08:01:00,29.0,27.0,29.40,SSE,147,0.0,-999.0,91,-99.99,,,-99.99,,2013-03-02 13:01:00,
2013-03-02 08:11:00,29.0,27.0,29.40,SSE,147,0.0,-999.0,91,-99.99,,,-99.99,,2013-03-02 13:11:00,
2013-03-02 08:22:00,30.0,28.0,29.37,North,2,0.0,-999.0,91,-99.99,,,-99.99,,2013-03-02 13:22:00,
2013-03-02 08:32:00,30.0,27.0,29.40,South,177,0.0,-999.0,90,-99.99,,,-99.99,,2013-03-02 13:32:00,
2013-03-02 08:42:00,30.0,27.0,29.40,South,177,0.0,-999.0,90,-99.99,,,-99.99,,2013-03-02 13:42:00,
2013-03-02 08:52:00,30.0,28.0,29.37,SSE,168,0.0,-999.0,91,-99.99,,,-99.99,,2013-03-02 13:52:00,
2013-03-02 09:01:00,30.0,28.0,29.40,North,351,0.0,-999.0,91,-99.99,,,-99.99,,2013-03-02 14:01:00,
2013-03-02 09:11:00,30.0,28.0,29.40,North,351,0.0,-999.0,91,-99.99,,,-99.99,,2013-03-02 14:11:00,
2013-03-02 09:22:00,30.0,28.0,29.40,SSE,161,0.0,-999.0,91,-99.99,,,-99.99,,2013-03-02 14:22:00,
2013-03-02 09:32:00,30.0,28.0,29.40,SSE,161,0.0,-999.0,91,-99.99,,,-99.99,,2013-03-02 14:32:00,
2013-03-02 09:42:00,30.0,28.0,29.40,SSE,161,0.0,-999.0,91,-99.99,,,-99.99,,2013-03-02 14:42:00,
2013-03-02 09:52:00,31.0,28.0,29.36,ESE,109,0.0,-999.0,90,-99.99,,,-99.99,,2013-03-02 14:52:00,
2013-03-02 10:02:00,30.0,27.0,29.40,South,174,1.0,-999.0,90,-99.99,,,-99.99,,2013-03-02 15:02:00,
2013-03-02 10:11:00,30.0,27.0,29.40,South,174,1.0,-999.0,90,-99.99,,,-99.99,,2013-03-02 15:11:00,
2013-03-02 10:22:00,31.0,28.0,29.36,SSW,196,1.0,-999.0,89,-99.99,,,-99.99,,2013-03-02 15:22:00,
2013-03-02 10:32:00,31.0,28.0,29.40,South,189,1.0,-999.0,88,-99.99,,,-99.99,,2013-03-02 15:32:00,
2013-03-02 10:42:00,31.0,28.0,29.40,South,189,1.0,-999.0,88,-99.99,,,-99.99,,2013-03-02 15:42:00,
2013-03-02 10:52:00,31.0,28.0,29.36,SSE,166,1.0,-999.0,87,-99.99,,,-99.99,,2013-03-02 15:52:00,
2013-03-02 11:02:00,31.0,27.0,29.40,WSW,249,1.0,-999.0,86,-99.99,,,-99.99,,2013-03-02 16:02:00,
2013-03-02 11:11:00,31.0,27.0,29.40,WSW,249,1.0,-999.0,86,-99.99,,,-99.99,,2013-03-02 16:11:00,
2013-03-02 11:22:00,31.0,27.0,29.36,South,182,1.0,-999.0,86,-99.99,,,-99.99,,2013-03-02 16:22:00,
2013-03-02 11:32:00,31.0,27.0,29.39,SW,218,2.0,-999.0,85,-99.99,,,-99.99,,2013-03-02 16:32:00,
2013-03-02 11:42:00,31.0,27.0,29.39,SW,218,2.0,-999.0,85,-99.99,,,-99.99,,2013-03-02 16:42:00,
2013-03-02 11:52:00,32.0,27.0,29.36,SSW,198,1.0,-999.0,83,-99.99,,,-99.99,,2013-03-02 16:52:00,
2013-03-02 12:01:00,33.0,28.0,29.39,South,191,1.0,-999.0,80,-99.99,,,-99.99,,2013-03-02 17:01:00,
2013-03-02 12:12:00,33.0,28.0,29.39,South,191,1.0,-999.0,80,-99.99,,,-99.99,,2013-03-02 17:12:00,
2013-03-02 12:22:00,33.0,27.0,29.35,WSW,253,3.0,-999.0,78,-99.99,,,-99.99,,2013-03-02 17:22:00,
2013-03-02 12:32:00,33.0,27.0,29.39,SE,144,3.0,-999.0,79,-99.99,,,-99.99,,2013-03-02 17:32:00,
2013-03-02 12:42:00,33.0,27.0,29.39,SE,144,3.0,-999.0,79,-99.99,,,-99.99,,2013-03-02 17:42:00,
2013-03-02 12:52:00,34.0,28.0,29.35,WSW,243,1.0,-999.0,77,-99.99,,,-99.99,,2013-03-02 17:52:00,
2013-03-02 13:02:00,33.0,26.0,29.39,SSW,199,1.0,-999.0,76,-99.99,,,-99.99,,2013-03-02 18:02:00,
2013-03-02 13:12:00,33.0,26.0,29.39,SSW,199,1.0,-999.0,76,-99.99,,,-99.99,,2013-03-02 18:12:00,
2013-03-02 13:22:00,34.0,27.0,29.34,SSW,197,2.0,-999.0,74,-99.99,,,-99.99,,2013-03-02 18:22:00,
2013-03-02 13:32:00,33.0,26.0,29.37,WSW,238,3.0,-999.0,75,-99.99,,,-99.99,,2013-03-02 18:32:00,
2013-03-02 13:42:00,33.0,26.0,29.37,WSW,238,3.0,-999.0,75,-99.99,,,-99.99,,2013-03-02 18:42:00,
2013-03-02 13:52:00,34.0,26.0,29.33,SSW,210,3.0,-999.0,73,-99.99,,,-99.99,,2013-03-02 18:52:00,
2013-03-02 14:01:00,34.0,26.0,29.37,SSE,159,2.0,-999.0,71,-99.99,,,-99.99,,2013-03-02 19:01:00,
2013-03-02 14:12:00,34.0,26.0,29.37,SSE,159,2.0,-999.0,71,-99.99,,,-99.99,,2013-03-02 19:12:00,
2013-03-02 14:22:00,34.0,26.0,29.34,SSE,162,2.0,-999.0,72,-99.99,,,-99.99,,2013-03-02 19:22:00,
2013-03-02 14:32:00,33.0,25.0,29.37,SSW,209,2.0,-999.0,72,-99.99,,,-99.99,,2013-03-02 19:32:00,
2013-03-02 14:42:00,33.0,25.0,29.37,SSW,209,2.0,-999.0,72,-99.99,,,-99.99,,2013-03-02 19:42:00,
2013-03-02 14:52:00,33.0,26.0,29.33,South,185,2.0,-999.0,74,-99.99,,,-99.99,,2013-03-02 19:52:00,
2013-03-02 15:01:00,33.0,26.0,29.36,South,186,2.0,-999.0,74,-99.99,,,-99.99,,2013-03-02 20:01:00,
2013-03-02 15:11:00,33.0,26.0,29.36,South,186,2.0,-999.0,74,-99.99,,,-99.99,,2013-03-02 20:11:00,
2013-03-02 15:22:00,32.0,26.0,29.34,South,172,3.0,-999.0,77,-99.99,,,-99.99,,2013-03-02 20:22:00,
2013-03-02 15:32:00,32.0,26.0,29.38,SSE,157,2.0,-999.0,77,-99.99,,,-99.99,,2013-03-02 20:32:00,
2013-03-02 15:42:00,32.0,26.0,29.38,SSE,157,2.0,-999.0,77,-99.99,,,-99.99,,2013-03-02 20:42:00,
2013-03-02 15:53:00,31.0,25.0,29.35,SSE,151,4.0,-999.0,79,-99.99,,,-99.99,,2013-03-02 20:53:00,
2013-03-02 16:02:00,31.0,26.0,29.38,SSW,212,2.0,-999.0,80,-99.99,,,-99.99,,2013-03-02 21:02:00,
2013-03-02 16:12:00,31.0,26.0,29.38,SSW,212,2.0,-999.0,80,-99.99,,,-99.99,,2013-03-02 21:12:00,
2013-03-02 16:22:00,30.0,26.0,29.35,SE,145,0.0,-999.0,85,-99.99,,,-99.99,,2013-03-02 21:22:00,
2013-03-02 16:32:00,30.0,26.0,29.38,South,180,1.0,-999.0,85,-99.99,,,-99.99,,2013-03-02 21:32:00,
2013-03-02 16:42:00,30.0,26.0,29.38,South,180,1.0,-999.0,85,-99.99,,,-99.99,,2013-03-02 21:42:00,
2013-03-02 16:52:00,30.0,26.0,29.35,SSW,213,1.0,-999.0,85,-99.99,,,-99.99,,2013-03-02 21:52:00,
2013-03-02 17:02:00,29.0,27.0,29.38,South,184,1.0,-999.0,92,-99.99,,,-99.99,,2013-03-02 22:02:00,
2013-03-02 17:11:00,29.0,27.0,29.38,South,184,1.0,-999.0,92,-99.99,,,-99.99,,2013-03-02 22:11:00,
2013-03-02 17:22:00,29.0,26.0,29.39,East,95,1.0,-999.0,87,-99.99,,,-99.99,,2013-03-02 22:22:00,
2013-03-02 17:32:00,29.0,26.0,29.39,East,95,1.0,-999.0,87,-99.99,,,-99.99,,2013-03-02 22:32:00,
2013-03-02 17:42:00,29.0,26.0,29.39,East,95,1.0,-999.0,87,-99.99,,,-99.99,,2013-03-02 22:42:00,
2013-03-02 17:52:00,29.0,26.0,29.36,SSW,208,1.0,-999.0,88,-99.99,,,-99.99,,2013-03-02 22:52:00,
2013-03-02 18:01:00,28.0,25.0,29.40,South,183,1.0,-999.0,88,-99.99,,,-99.99,,2013-03-02 23:01:00,
2013-03-02 18:11:00,28.0,25.0,29.38,South,180,1.0,-999.0,89,-99.99,,,-99.99,,2013-03-02 23:11:00,
2013-03-02 18:22:00,28.0,25.0,29.38,South,180,1.0,-999.0,89,-99.99,,,-99.99,,2013-03-02 23:22:00,
2013-03-02 18:32:00,28.0,25.0,29.41,SE,143,1.0,-999.0,89,-99.99,,,-99.99,,2013-03-02 23:32:00,
2013-03-02 18:42:00,28.0,25.0,29.41,SE,143,1.0,-999.0,89,-99.99,,,-99.99,,2013-03-02 23:42:00,
2013-03-02 18:52:00,28.0,25.0,29.38,SW,220,1.0,-999.0,89,-99.99,,,-99.99,,2013-03-02 23:52:00,
2013-03-02 19:02:00,28.0,25.0,29.42,SE,143,1.0,-999.0,89,-99.99,,,-99.99,,2013-03-03 00:02:00,
2013-03-02 19:11:00,28.0,25.0,29.42,SE,143,1.0,-999.0,89,-99.99,,,-99.99,,2013-03-03 00:11:00,
2013-03-02 19:22:00,28.0,25.0,29.38,ESE,120,2.0,-999.0,89,-99.99,,,-99.99,,2013-03-03 00:22:00,
2013-03-02 19:32:00,27.0,24.0,29.41,South,175,1.0,-999.0,89,-99.99,,,-99.99,,2013-03-03 00:32:00,
2013-03-02 19:42:00,27.0,24.0,29.41,South,175,1.0,-999.0,89,-99.99,,,-99.99,,2013-03-03 00:42:00,
2013-03-02 19:52:00,27.0,24.0,29.41,SSE,152,1.0,-999.0,88,-99.99,,,-99.99,,2013-03-03 00:52:00,
2013-03-02 20:01:00,27.0,24.0,29.41,SSE,152,1.0,-999.0,88,-99.99,,,-99.99,,2013-03-03 01:01:00,
2013-03-02 20:11:00,27.0,24.0,29.41,SSE,152,1.0,-999.0,88,-99.99,,,-99.99,,2013-03-03 01:11:00,
2013-03-02 20:21:00,27.0,24.0,29.38,SE,146,0.0,-999.0,89,-99.99,,,-99.99,,2013-03-03 01:21:00,
2013-03-02 20:32:00,27.0,24.0,29.41,SE,138,0.0,-999.0,90,-99.99,,,-99.99,,2013-03-03 01:32:00,
2013-03-02 20:42:00,27.0,24.0,29.41,SE,138,0.0,-999.0,90,-99.99,,,-99.99,,2013-03-03 01:42:00,
2013-03-02 20:52:00,27.0,24.0,29.38,South,177,2.0,-999.0,89,-99.99,,,-99.99,,2013-03-03 01:52:00,
2013-03-02 21:01:00,26.0,23.0,29.41,SSW,201,2.0,-999.0,89,-99.99,,,-99.99,,2013-03-03 02:01:00,
2013-03-02 21:11:00,26.0,23.0,29.41,SSW,201,2.0,-999.0,89,-99.99,,,-99.99,,2013-03-03 02:11:00,
2013-03-02 21:21:00,26.0,23.0,29.37,SSW,193,1.0,-999.0,89,-99.99,,,-99.99,,2013-03-03 02:21:00,
2013-03-02 21:32:00,26.0,23.0,29.41,SSE,166,1.0,-999.0,89,-99.99,,,-99.99,,2013-03-03 02:32:00,
2013-03-02 21:42:00,26.0,23.0,29.41,SSE,166,1.0,-999.0,89,-99.99,,,-99.99,,2013-03-03 02:42:00,
2013-03-02 21:52:00,26.0,23.0,29.37,WSW,238,0.0,-999.0,89,-99.99,,,-99.99,,2013-03-03 02:52:00,
2013-03-02 22:01:00,26.0,23.0,29.41,SSE,167,0.0,-999.0,89,-99.99,,,-99.99,,2013-03-03 03:01:00,
2013-03-02 22:11:00,26.0,23.0,29.41,SSE,167,0.0,-999.0,89,-99.99,,,-99.99,,2013-03-03 03:11:00,
2013-03-02 22:22:00,26.0,23.0,29.41,SE,124,0.0,-999.0,90,-99.99,,,-99.99,,2013-03-03 03:22:00,
2013-03-02 22:32:00,26.0,23.0,29.41,SE,124,0.0,-999.0,90,-99.99,,,-99.99,,2013-03-03 03:32:00,
2013-03-02 22:42:00,26.0,23.0,29.41,SE,124,0.0,-999.0,90,-99.99,,,-99.99,,2013-03-03 03:42:00,
2013-03-02 22:52:00,26.0,24.0,29.36,South,191,0.0,-999.0,92,-99.99,,,-99.99,,2013-03-03 03:52:00,
2013-03-02 23:01:00,25.0,23.0,29.40,South,191,0.0,-999.0,91,-99.99,,,-99.99,,2013-03-03 04:01:00,
2013-03-02 23:11:00,25.0,23.0,29.40,South,191,0.0,-999.0,91,-99.99,,,-99.99,,2013-03-03 04:11:00,
2013-03-02 23:21:00,26.0,24.0,29.36,South,180,0.0,-999.0,92,-99.99,,,-99.99,,2013-03-03 04:21:00,
2013-03-02 23:32:00,25.0,23.0,29.39,SSE,163,0.0,-999.0,93,-99.99,,,-99.99,,2013-03-03 04:32:00,
2013-03-02 23:42:00,25.0,23.0,29.39,SSE,163,0.0,-999.0,93,-99.99,,,-99.99,,2013-03-03 04:42:00,
2013-03-02 23:52:00,25.0,23.0,29.36,SSE,162,0.0,-999.0,91,-99.99,,,-99.99,,2013-03-03 04:52:00,